Content
SEND FEEDBACK

Daily
Averages
Monthly
Summary
United States of America

WILMINGTON, NORTH CAROLINA


Home > North America > United States > North Carolina
Elevation: 72 feet     Latitude: 34 16N     Longitude: 077 54W

WEATHER
 
SELECT A DAY
Number of Records: 209,103;   Date Range: 1/1/95 - 9/18/14
 
SHARE

PRINT THIS DATA

[ ← Previous Day ]
WEATHER ALMANAC - MARCH 27, 2013
[ Next Day → ]
[ °C ]   °F
Weather ElementAverageHighLow
Temperature46.3 °F57 °F (4:53 pm)35.1 °F (6:53 am)
Dewpoint25.1 °F28 °F (1:53 am)21.9 °F (5:53 pm)
Humidity46.1 %72 % (6:53 am)27 % (4:53 pm)
Barometer30.16 in30.22 in (10:53 pm)30.12 in (1:53 am)
Wind Speed11 mph21.9 mph (1:53 pm)
Wind Gust26.5 mph (1:53 pm)
Weather ElementAverage
Visibility10 mi
Wind DirectionWNW (306.5 °)

Weather ElementTotal
Precipitation---
Heating Degree Days19 (Base 65)
Averaged from 23 records on March 27, 2013
WEATHER CONDITIONS BREAKOUT
WIND DIRECTION BREAKOUT
WEATHER BY HOUR - MARCH 27, 2013
[ °C ]   °F
Local TimeTemperatureDewpointHumidityBarometerVisibilityWind DirectionWind SpeedGust SpeedPrecipitationEventsConditions
1:53 AM41.0 °F28.0 °F60 %30.12 in10.0 miWNW (300°)6.9 mphClear
2:53 AM39.9 °F27.0 °F60 %30.12 in10.0 miWNW (300°)8.1 mphClear
3:53 AM39.0 °F28.0 °F65 %30.12 in10.0 miWest (280°)6.9 mphClear
4:53 AM37.9 °F27.0 °F65 %30.13 in10.0 miWNW (290°)6.9 mphClear
5:53 AM36.0 °F27.0 °F70 %30.14 in10.0 miWSW (250°)5.8 mphClear
6:53 AM35.1 °F27.0 °F72 %30.16 in10.0 miWest (270°)4.6 mphClear
7:53 AM37.9 °F27.0 °F65 %30.19 in10.0 miWest (280°)8.1 mphClear
8:53 AM42.1 °F27.0 °F55 %30.20 in10.0 miNW (310°)15.0 mphClear
9:53 AM46.0 °F27.0 °F47 %30.21 in10.0 miNNW (330°)13.8 mphClear
10:53 AM48.9 °F24.1 °F38 %30.19 in10.0 miNNW (340°)13.8 mph21.9 mphClear
11:53 AM51.1 °F25.0 °F36 %30.19 in10.0 miNNW (340°)11.5 mph18.4 mphClear
12:53 PM53.1 °F24.1 °F32 %30.18 in10.0 miWNW (300°)17.3 mph24.2 mphClear
1:53 PM54.0 °F23.0 °F30 %30.15 in10.0 miWNW (290°)21.9 mph26.5 mphClear
2:53 PM55.0 °F23.0 °F29 %30.14 in10.0 miWNW (290°)17.3 mph21.9 mphClear
3:53 PM55.9 °F23.0 °F28 %30.12 in10.0 miWNW (300°)17.3 mph24.2 mphClear
4:53 PM57.0 °F23.0 °F27 %30.12 in10.0 miNW (310°)12.7 mph19.6 mphClear
5:53 PM55.9 °F21.9 °F27 %30.13 in10.0 miWNW (300°)13.8 mph20.7 mphClear
6:53 PM54.0 °F23.0 °F30 %30.14 in10.0 miWNW (300°)12.7 mphClear
7:53 PM50.0 °F25.0 °F38 %30.16 in10.0 miNW (320°)8.1 mphClear
8:53 PM46.0 °F26.1 °F46 %30.19 in10.0 miNNW (330°)8.1 mphClear
9:53 PM44.1 °F25.0 °F47 %30.21 in10.0 miNNW (340°)6.9 mphClear
10:53 PM41.0 °F24.1 °F51 %30.22 in10.0 miNNW (340°)8.1 mphClear
11:53 PM43.0 °F21.9 °F43 %30.22 in10.0 miNNW (340°)6.9 mphClear
Hourly data recorded from KILM, located miles away from Wilmington, North Carolina







STORIES FROM OUR PARTNERS